User: anonymous   Login
Location: Unspecified
(0.0000°N, 0.0000°E)
Time: 05:16:06
(UTC+00:00)
Language:

USA 148 - Orbit

View from above orbital plane
View from above orbital plane
View from above satellite
View from above satellite

Ground track
Ground track

The orbit data is extracted from the following two-line orbital elements,

1 26052U 00001A   18111.06227498 0.00000000  00000-0  00000-0 0    09
2 26052   7.1516  51.8156 0006001 300.0303  59.9085  1.00270000    05
Epoch (UTC): 21 April 2018 01:29:40
Eccentricity: 0.0006001
inclination: 7.1516°
perigee height: 35761 km
apogee height: 35812 km
right ascension of ascending node: 51.8156°
argument of perigee: 300.0303°
revolutions per day: 1.00270000
mean anomaly at epoch: 59.9085°
orbit number at epoch: 0

The dashed part of the orbit path shows where the satellite is in the earth's shadow,  

DLR